Location: Monrovia
(34.7865°N, 86.7139°W)
Time: 01:13:18
(UTC+00:00)

ATLAS 3B R/B - Visible Passes

Search period start: 24 October 2020 00:00
Search period end: 03 November 2020 00:00
Orbit: 1016 x 1179 km, 63.8° (Epoch: 04 October)

Date Brightness Start Highest point End Pass type
(mag) Time Alt. Az. Time Alt. Az. Time Alt. Az.
24 Oct 4.7 09:19:55 10° SSE 09:24:43 22° ESE 09:29:30 10° ENE visible
24 Oct 2.7 11:08:23 10° SW 11:14:50 58° NW 11:21:21 10° NNE visible
25 Oct 5.3 08:36:46 10° ESE 08:37:55 10° ESE 08:39:04 10° E visible
25 Oct 2.6 10:20:59 10° SSW 10:27:33 84° ESE 10:34:10 10° NNE visible
26 Oct 3.4 09:36:11 20° S 09:40:26 47° ESE 09:46:42 10° NE visible
26 Oct 3.4 11:25:37 10° WSW 11:31:16 30° NW 11:36:59 10° N visible
27 Oct 4.3 08:52:06 24° SE 08:53:28 26° ESE 08:58:46 10° NE visible
27 Oct 2.8 10:39:28 21° WSW 10:43:44 49° NW 10:50:08 10° NNE visible
28 Oct 5.1 08:07:40 13° E 08:07:40 13° E 08:09:39 10° ENE visible
28 Oct 2.4 09:55:00 58° SW 09:56:24 83° WNW 10:03:03 10° NNE visible
29 Oct 3.2 09:10:17 51° E 09:10:17 51° E 09:15:41 10° NE visible
29 Oct 3.6 10:57:37 20° W 11:00:16 26° NW 11:05:40 10° N visible
30 Oct 4.6 08:25:22 21° ENE 08:25:22 21° ENE 08:27:55 10° NE visible
30 Oct 3.0 10:12:41 41° NW 10:12:41 41° NW 10:18:54 10° NNE visible
31 Oct 3.3 09:27:37 42° NNE 09:27:37 42° NNE 09:31:54 10° NNE visible
31 Oct 4.2 11:14:54 12° WNW 11:17:11 14° NW 11:20:28 10° N visible
01 Nov 4.5 08:42:25 22° NE 08:42:25 22° NE 08:44:37 10° NE visible
01 Nov 3.8 10:29:42 22° NW 10:29:42 22° NW 10:34:18 10° N visible
02 Nov 3.9 09:44:24 25° N 09:44:24 25° N 09:47:39 10° NNE visible
